Lid_Strength_Index
12 13 15 12 13 14 15 16 16 14 13 13 14 13 12 11 13 12 11 12 11 11 9 11 11 10 10 10 9 8 7 7 8 8 8 9 9 10 11 11 9 8 8 8
13 15 11 12 12 13 14 15 15 14 13 13 14 14 13 11 12 11 10 10 11 10 11 12 12 11 10 10 9 10 8 9 8 7 8 9 11 12 12 12 12 10 9 10
14 12 11 12 13 14 15 15 15 14 14 14 15 16 14 12 11 11 11 10 9 11 11 13 13 12 11 10 9 9 8 8 8 9 11 12 12 12 13 13 13 13 12 11
13 11 12 13 14 12 15 13 14 14 15 17 15 18 15 13 12 12 11 10 11 12 12 12 12 12 11 10 9 9 8 8 9 10 10 10 10 11 12 13 14 14 13 13
13 13 13 14 13 12 14 13 14 15 16 17 17 17 16 15 14 12 10 10 12 12 12 12 12 11 11 10 9 9 9 8 10 10 10 10 10 12 12 14 15 15 15 15
13 12 12 12 12 12 12 14 14 16 16 19 17 16 16 15 14 13 12 11 12 12 13 13 13 12 11 10 10 9 9 9 10 11 10 10 12 14 14 15 15 15 15 16
14 13 12 12 13 13 13 14 17 19 20 19 18 18 14 13 13 13 12 12 12 12 13 14 13 13 12 10 10 10 9 10 11 11 11 11 12 13 13 14 14 16 16 16
15 16 13 12 12 13 14 14 17 22 21 19 18 19 16 14 13 13 13 13 13 12 13 14 13 13 12 11 10 10 10 11 11 12 12 13 13 13 13 13 14 15 16 16
16 16 14 13 13 11 15 16 14 17 25 21 18 17 14 14 14 13 12 13 13 13 13 14 14 13 12 11 10 10 10 11 11 11 13 13 13 14 15 15 15 16 16 17
13 16 15 14 13 14 14 13 17 18 22 23 19 19 17 14 14 13 14 13 13 14 14 14 14 13 12 11 10 10 11 12 11 12 13 14 14 14 15 16 17 17 17 17
13 14 17 16 16 16 16 16 16 16 18 21 23 18 15 14 13 13 13 13 13 13 14 14 14 14 13 11 11 12 12 12 12 12 13 14 14 15 16 16 17 17 17 17
12 14 19 17 16 15 16 15 15 18 20 19 20 17 14 13 13 13 13 13 13 14 14 15 14 14 13 12 12 13 12 12 12 13 13 14 15 15 16 16 17 17 17 17
12 14 18 16 16 15 16 15 13 15 17 19 19 16 15 14 14 13 13 13 14 14 15 15 15 15 14 13 13 13 13 13 13 13 14 15 16 16 16 17 17 17 18 18
9 14 14 17 15 15 17 16 15 13 17 16 16 14 14 14 13 13 13 13 13 14 15 15 15 15 15 14 13 13 13 13 14 14 14 15 16 16 16 17 17 18 18 18
10 15 14 13 14 14 15 15 14 15 14 15 14 14 12 11 11 10 11 13 14 14 15 15 15 15 15 15 14 14 14 14 14 15 15 16 16 16 16 17 18 18 18 18
10 15 14 15 13 14 15 15 14 14 13 13 13 13 10 11 10 10 10 10 12 13 13 14 15 15 15 15 15 14 14 15 15 15 15 15 16 16 17 18 18 19 19 19
13 15 15 17 14 15 17 14 15 14 13 13 15 12 9 12 10 10 10 11 10 12 12 12 13 14 14 14 14 14 14 15 15 15 15 16 16 17 17 18 18 19 19 19
14 15 14 17 15 21 14 12 10 12 12 12 12 11 10 10 10 10 9 10 10 10 11 11 12 13 13 13 14 14 14 15 15 15 16 16 17 17 17 18 18 18 19 19
10 13 15 17 18 15 14 14 13 13 13 10 11 10 9 9 12 10 11 10 9 9 10 10 11 12 13 14 14 15 15 15 15 16 16 16 16 17 18 18 18 18 18 19
12 11 14 16 19 20 15 17 13 11 15 9 10 9 10 11 14 10 10 11 11 11 12 12 12 13 14 15 15 15 16 16 16 15 16 16 16 17 18 17 18 18 18 18
14 14 16 16 17 15 13 16 13 16 14 16 11 9 9 11 10 11 12 12 12 13 13 14 13 14 15 15 15 16 16 16 15 16 16 16 16 16 17 17 17 17 18 18
14 15 16 15 17 19 16 15 14 14 14 16 14 13 13 12 11 12 12 12 13 13 14 15 16 17 17 15 15 16 16 16 16 16 17 17 16 16 16 17 17 17 17 18
15 12 14 13 14 12 13 13 12 12 13 12 13 12 12 12 13 12 13 13 13 14 15 18 17 18 18 17 16 17 17 16 17 17 17 17 16 16 17 17 17 17 17 17
13 10 12 12 11 10 10 10 10 10 10 11 12 12 12 12 13 13 15 14 14 18 17 19 18 19 19 20 18 17 16 16 15 15 16 16 16 17 17 16 16 16 17 17
12 12 14 13 11 10 9 10 9 9 10 10 10 12 11 11 12 14 14 15 14 16 18 18 17 18 18 19 19 18 16 15 15 15 15 15 15 16 16 16 15 16 15 15
12 12 13 13 10 10 9 8 9 10 10 11 11 13 14 13 12 13 13 14 15 15 17 18 18 19 20 19 19 19 16 15 15 16 15 14 14 14 15 15 15 13 13 12